Wind_Speed
33 33 33 33 34 34 34 34 35 35 35 35 36 36 37 37 38 38 38 38 38 39 39 39 39 39 39 39 38 38 38 37 37 36 36 36 35 35 35 35 34 34 33
33 34 34 34 35 35 35 34 34 35 36 36 36 37 37 38 39 39 39 39 39 39 40 41 41 41 41 41 41 41 40 40 39 38 38 38 38 37 37 37 36 36 36
33 33 34 34 35 35 34 34 34 35 36 36 36 36 37 38 38 39 39 40 40 41 41 41 42 42 42 41 42 42 42 42 42 41 41 40 40 40 40 39 38 38 37
32 33 33 33 34 34 34 35 35 35 36 36 37 37 37 38 38 39 40 41 42 42 42 42 42 43 43 43 43 44 43 43 43 43 43 42 42 42 42 42 41 40 39
32 32 32 33 33 34 34 35 35 35 36 36 37 38 38 39 39 40 41 41 42 42 42 43 43 44 44 44 45 45 45 45 44 44 44 44 44 43 43 43 42 42 41
32 32 33 33 33 34 34 35 36 36 36 37 38 38 39 39 40 40 41 42 43 44 44 44 45 46 46 46 46 46 46 46 46 45 45 45 45 45 45 43 42 43 42
33 33 33 33 34 34 35 36 36 36 37 38 38 38 38 39 39 40 41 42 44 45 46 46 47 48 48 47 48 48 48 48 47 47 47 46 46 46 46 45 43 43 43
33 33 33 33 34 34 35 36 37 37 38 38 38 37 37 37 39 40 42 43 43 44 45 46 47 48 48 48 48 48 49 49 48 47 48 48 48 46 46 46 46 45 44
33 33 33 34 35 35 36 37 37 37 38 38 39 39 39 39 39 40 41 42 43 44 45 46 46 47 48 49 49 49 49 49 48 49 49 48 49 48 48 49 47 47 45
34 34 34 35 36 37 37 37 37 38 38 39 39 40 40 40 39 39 41 42 42 43 44 45 45 45 46 47 48 49 50 50 50 50 50 50 49 50 50 50 49 49 49
36 36 37 38 39 39 38 38 39 39 39 40 40 40 41 40 40 39 39 40 41 42 42 43 44 44 44 45 46 47 48 49 50 51 52 53 51 50 51 51 51 51 52
38 38 39 39 40 40 40 40 40 41 41 41 41 41 41 41 41 41 41 40 41 41 41 42 42 44 44 44 46 47 47 47 48 50 50 52 53 52 52 53 52 53 53
40 41 41 42 42 41 41 41 41 42 42 42 42 42 42 42 42 42 42 41 41 42 43 43 44 45 45 46 47 47 47 48 49 49 49 50 51 52 52 52 52 52 53
42 42 43 43 43 44 44 43 43 43 43 43 43 43 43 43 43 43 43 43 43 43 44 44 45 46 46 46 47 47 47 48 49 49 49 49 50 51 52 53 52 52 52
43 43 44 44 45 45 45 45 45 45 44 44 44 44 44 44 44 44 44 44 44 44 44 45 46 46 47 47 47 48 48 48 49 49 49 50 50 51 52 53 53 53 53
45 46 46 46 46 46 45 46 46 45 45 44 44 44 44 44 45 45 46 46 46 46 46 46 47 47 47 48 48 49 50 51 51 52 51 51 52 53 52 53 55 55 55
45 45 46 46 46 46 46 46 45 45 45 45 44 44 45 45 46 46 47 47 47 47 47 47 47 47 48 48 48 48 49 51 51 52 53 52 52 54 54 54 54 54 54
45 45 45 46 46 47 46 46 45 45 45 44 45 45 45 46 46 47 47 47 47 46 47 47 47 48 48 49 50 50 50 50 52 53 53 53 54 54 55 55 56 55 54
44 45 46 46 46 46 45 45 45 45 45 45 45 45 46 46 46 46 46 46 45 46 46 46 46 47 48 48 50 50 50 51 52 53 54 54 54 55 55 56 56 56 56
45 45 45 45 44 44 45 45 44 44 44 45 45 45 46 46 45 45 45 45 45 45 45 45 45 46 48 48 49 50 50 50 51 52 53 54 55 55 56 56 57 57 57
44 44 43 43 43 43 43 43 43 43 43 44 44 45 45 44 44 44 44 44 44 44 45 45 46 47 48 48 48 49 49 50 50 51 52 53 54 54 55 56 57 58 58
44 44 43 43 43 43 43 43 43 43 43 43 43 43 44 43 43 43 43 43 44 44 44 45 46 47 47 48 48 48 48 49 49 50 51 51 52 52 53 54 55 56 56
43 43 42 42 42 42 43 43 43 43 43 43 43 43 43 42 42 43 43 43 44 44 45 45 46 46 46 46 47 47 47 46 47 49 50 50 51 52 53 53 54 54 54
43 43 43 43 43 43 43 43 44 43 43 43 42 42 42 42 42 42 43 43 44 44 45 45 46 45 45 45 45 44 43 43 43 45 47 48 49 50 51 53 54 54 55
44 44 43 43 43 43 43 43 44 43 43 42 42 41 42 42 43 43 43 43 44 45 45 45 45 45 45 44 44 43 42 42 43 44 46 46 47 48 49 50 52 53 54
44 44 43 44 44 44 44 43 43 43 43 42 42 42 42 43 43 43 43 44 44 44 45 45 45 45 44 44 42 42 42 42 43 44 45 46 46 47 46 47 48 49 50
Wind_Direction
285 283 282 281 280 280 280 280 281 280 280 280 278 276 275 273 272 271 269 269 269 268 268 269 270 269 269 269 269 269 269 268 268 268 267 267 267 267 267 268 268 269 269
286 284 283 282 282 281 281 281 281 281 281 281 279 278 276 274 273 271 269 269 269 268 269 269 269 269 268 268 268 269 269 268 267 267 267 266 266 266 266 266 267 267 268
286 285 285 284 283 282 281 281 282 282 282 281 281 280 278 275 274 272 270 269 268 268 268 269 269 269 268 268 268 268 268 268 268 267 267 267 267 266 266 266 266 266 266
287 286 286 285 285 284 282 281 282 282 283 283 282 280 279 278 276 275 273 271 269 268 268 269 269 268 268 268 267 267 267 267 266 266 266 266 266 266 266 266 265 265 265
288 288 287 287 286 285 284 283 283 284 284 284 284 282 280 278 278 276 274 272 270 269 270 269 268 269 269 268 268 268 266 266 266 264 264 264 264 265 265 265 264 264 263
288 288 288 288 287 287 287 286 286 286 285 285 284 283 281 279 278 277 275 272 271 270 269 269 269 269 269 268 268 267 267 266 265 263 263 263 262 263 263 262 263 262 262
288 288 289 288 288 288 288 288 287 287 287 286 284 283 282 281 279 277 276 275 273 272 271 270 270 270 269 268 267 267 267 267 267 265 262 262 261 261 261 262 261 261 260
288 289 289 289 290 290 291 290 289 289 288 286 285 283 283 283 282 280 278 277 276 275 273 272 272 271 269 268 267 267 266 266 266 266 264 261 260 260 260 260 261 260 259
289 291 291 291 291 292 292 292 291 290 289 288 286 284 283 282 282 282 281 280 278 277 275 274 274 273 271 270 268 268 267 266 266 265 263 262 261 260 259 260 258 258 258
289 290 291 291 292 292 292 292 291 291 290 289 288 287 286 285 283 281 281 281 280 279 277 276 275 274 273 271 269 268 267 266 265 264 262 261 261 261 260 261 258 257 258
289 290 291 292 292 293 293 293 292 291 291 291 289 288 287 285 284 283 281 281 281 281 279 277 277 275 275 273 271 269 268 267 265 262 260 260 261 261 259 260 259 258 257
290 291 292 293 293 293 294 293 293 292 292 291 290 289 287 286 285 284 283 281 281 280 280 278 277 275 275 274 272 270 270 267 266 264 261 259 260 260 258 258 257 257 257
289 290 291 292 293 294 294 293 292 292 292 291 290 289 287 286 285 285 284 282 281 280 280 278 277 276 275 274 272 273 271 268 266 264 263 261 260 259 257 257 256 257 258
289 289 290 291 293 293 293 292 292 292 292 291 290 288 287 286 286 285 284 283 281 280 280 279 278 277 275 274 272 272 271 269 267 265 263 262 261 259 258 257 256 257 258
288 289 289 291 292 292 292 292 292 292 291 290 289 288 287 287 286 286 286 285 283 281 280 280 278 277 276 274 273 271 270 269 268 266 264 263 262 261 260 258 258 258 257
288 288 289 290 291 291 291 291 291 290 290 288 288 287 287 287 287 286 286 285 284 283 282 281 279 277 276 274 273 272 270 269 267 265 264 263 262 261 260 260 260 259 257
288 289 289 290 290 290 291 291 290 289 289 288 287 287 288 288 288 287 286 286 285 284 283 282 280 278 276 275 274 272 271 269 267 266 265 263 262 261 260 260 259 259 257
289 290 290 290 290 291 291 290 289 288 288 288 287 287 288 288 288 288 287 287 286 285 284 283 282 280 277 276 275 273 272 270 267 266 265 264 263 262 261 260 260 259 258
290 291 290 290 290 290 290 289 289 288 287 287 287 287 288 288 288 289 289 288 287 287 286 285 283 281 279 278 277 275 273 271 268 266 266 264 263 263 262 261 260 259 257
291 292 291 291 290 290 289 289 288 288 287 287 287 288 289 289 289 289 289 289 289 288 288 287 285 284 282 282 280 277 274 273 271 268 267 265 263 263 262 261 261 260 258
291 291 291 291 290 291 291 290 289 289 288 289 289 289 289 290 290 290 290 289 290 290 289 288 288 287 285 283 282 279 276 274 272 270 268 267 265 264 263 261 260 260 259
291 291 291 291 291 291 290 290 290 290 290 290 290 289 290 289 290 290 291 291 291 291 290 290 290 289 288 286 284 281 278 275 272 270 269 268 266 265 264 263 261 261 260
290 290 290 291 291 292 292 291 291 290 290 290 290 290 290 289 290 291 291 292 292 292 292 291 291 291 290 288 285 283 280 277 273 271 270 269 268 266 264 263 262 261 260
290 290 290 291 291 292 292 292 292 291 291 290 290 290 290 290 290 291 291 292 293 294 293 293 292 292 291 290 288 285 282 279 277 275 273 271 269 268 266 265 264 263 261
290 291 290 291 291 291 292 292 292 292 291 290 290 290 290 291 291 291 292 293 294 294 295 295 294 293 292 292 290 286 283 281 279 278 277 275 272 270 268 266 265 264 262
290 290 290 290 290 290 290 291 292 291 290 290 290 290 290 291 292 292 293 293 294 295 295 296 295 294 294 293 291 288 286 283 282 280 278 277 275 272 269 267 265 264 263
Height
5808 5807 5806 5805 5805 5804 5803 5802 5801 5800 5799 5799 5798 5797 5797 5797 5797 5798 5798 5799 5799 5800 5800 5800 5800 5801 5802 5803 5803 5804 5805 5806 5806 5807 5808 5808 5809 5810 5811 5811 5812 5813 5813
5801 5800 5799 5797 5797 5796 5795 5794 5793 5792 5791 5791 5789 5789 5788 5788 5788 5788 5788 5789 5789 5790 5790 5790 5791 5791 5792 5793 5794 5795 5796 5796 5797 5798 5799 5800 5801 5801 5802 5803 5804 5805 5806
5794 5792 5791 5790 5788 5787 5787 5786 5785 5784 5783 5782 5781 5780 5779 5779 5778 5779 5779 5779 5779 5780 5780 5780 5780 5781 5781 5782 5783 5784 5785 5787 5787 5788 5789 5790 5791 5792 5793 5794 5795 5796 5797
5787 5785 5784 5782 5781 5780 5779 5778 5777 5776 5775 5773 5772 5771 5770 5770 5769 5769 5769 5769 5769 5769 5769 5770 5770 5770 5771 5772 5772 5773 5775 5776 5777 5778 5779 5780 5781 5782 5783 5785 5786 5787 5788
5780 5778 5777 5775 5773 5772 5771 5770 5769 5767 5766 5765 5763 5762 5761 5760 5759 5759 5759 5759 5758 5758 5758 5759 5759 5760 5760 5761 5761 5762 5763 5764 5765 5767 5768 5769 5770 5771 5773 5774 5775 5777 5778
5773 5771 5770 5768 5766 5765 5763 5762 5760 5759 5758 5756 5754 5753 5751 5750 5749 5749 5748 5748 5748 5747 5747 5747 5748 5749 5749 5750 5750 5751 5752 5753 5754 5755 5756 5758 5759 5760 5761 5762 5764 5766 5768
5766 5764 5762 5760 5758 5757 5755 5754 5752 5750 5749 5747 5745 5744 5742 5740 5739 5739 5738 5737 5737 5736 5736 5736 5736 5737 5737 5738 5738 5739 5740 5741 5742 5743 5744 5746 5747 5749 5750 5751 5753 5755 5757
5758 5756 5755 5753 5751 5749 5747 5745 5743 5741 5739 5737 5736 5734 5733 5732 5730 5728 5727 5726 5726 5725 5725 5724 5724 5724 5724 5725 5726 5726 5727 5728 5729 5730 5732 5734 5735 5736 5738 5740 5742 5744 5745
5751 5749 5747 5745 5743 5741 5739 5737 5735 5732 5730 5728 5726 5725 5723 5722 5721 5719 5717 5716 5715 5714 5713 5713 5712 5712 5712 5712 5713 5714 5715 5716 5716 5717 5719 5720 5722 5724 5726 5728 5730 5732 5734
5744 5741 5739 5737 5735 5733 5731 5728 5726 5723 5721 5719 5716 5714 5713 5711 5710 5710 5707 5705 5704 5702 5701 5700 5700 5699 5699 5699 5700 5701 5701 5702 5703 5704 5706 5707 5709 5711 5713 5714 5717 5719 5721
5736 5733 5731 5729 5726 5724 5722 5719 5716 5714 5711 5709 5707 5704 5702 5700 5699 5698 5697 5695 5693 5691 5690 5688 5687 5687 5686 5686 5687 5687 5688 5688 5689 5690 5692 5694 5695 5697 5700 5701 5704 5706 5708
5727 5725 5722 5720 5717 5715 5712 5710 5707 5704 5701 5699 5696 5694 5692 5690 5688 5686 5686 5684 5682 5680 5678 5676 5675 5675 5674 5673 5673 5674 5674 5674 5675 5675 5677 5679 5681 5683 5685 5687 5689 5692 5694
5718 5716 5713 5710 5708 5705 5702 5699 5697 5694 5691 5688 5686 5683 5681 5679 5677 5675 5674 5672 5671 5669 5666 5664 5663 5662 5661 5661 5660 5660 5660 5660 5660 5661 5662 5664 5666 5668 5670 5673 5675 5677 5680
5708 5706 5703 5700 5697 5694 5691 5689 5686 5683 5680 5677 5674 5672 5670 5667 5665 5663 5661 5660 5658 5657 5654 5652 5649 5648 5648 5647 5647 5646 5646 5646 5646 5647 5648 5649 5651 5653 5656 5658 5660 5663 5665
5698 5695 5692 5690 5687 5683 5680 5677 5674 5671 5668 5666 5663 5660 5658 5656 5653 5650 5648 5646 5645 5643 5642 5639 5637 5635 5634 5633 5633 5632 5632 5632 5632 5632 5633 5635 5636 5638 5640 5643 5645 5647 5650
5687 5684 5681 5678 5675 5672 5669 5666 5663 5660 5657 5654 5651 5649 5646 5643 5641 5638 5635 5633 5631 5629 5628 5625 5623 5621 5620 5619 5618 5617 5617 5617 5617 5617 5618 5619 5621 5623 5625 5627 5629 5632 5634
5676 5673 5670 5667 5663 5660 5657 5654 5651 5648 5645 5642 5639 5636 5634 5631 5628 5625 5622 5619 5617 5615 5613 5611 5608 5607 5605 5604 5603 5602 5601 5601 5601 5601 5602 5603 5605 5607 5608 5611 5613 5615 5617
5664 5661 5658 5655 5651 5648 5645 5641 5638 5635 5633 5630 5627 5624 5621 5618 5615 5612 5609 5606 5603 5600 5599 5597 5594 5592 5590 5589 5588 5586 5585 5584 5585 5585 5585 5586 5588 5589 5591 5593 5595 5598 5600
5652 5649 5646 5643 5639 5636 5632 5629 5626 5623 5620 5617 5615 5612 5609 5605 5602 5599 5596 5593 5590 5587 5584 5582 5580 5577 5575 5574 5572 5571 5569 5568 5568 5568 5568 5569 5571 5572 5574 5575 5577 5580 5583
5641 5637 5634 5630 5627 5624 5620 5617 5614 5611 5608 5605 5602 5599 5596 5593 5589 5586 5583 5580 5577 5574 5571 5568 5566 5563 5561 5559 5557 5555 5554 5552 5552 5551 5551 5552 5554 5554 5556 5558 5560 5562 5564
5629 5625 5622 5618 5615 5612 5608 5605 5602 5599 5596 5593 5589 5586 5583 5580 5577 5574 5571 5567 5564 5561 5558 5555 5552 5549 5546 5544 5542 5539 5538 5537 5536 5535 5536 5536 5537 5538 5538 5539 5541 5543 5546
5617 5613 5610 5607 5603 5600 5596 5593 5590 5587 5584 5581 5577 5574 5571 5568 5565 5561 5558 5555 5552 5548 5545 5542 5539 5535 5532 5529 5526 5524 5522 5522 5521 5521 5520 5520 5520 5521 5521 5522 5523 5525 5527
5604 5601 5598 5595 5591 5588 5585 5581 5578 5575 5572 5569 5565 5562 5559 5556 5552 5549 5546 5542 5539 5535 5532 5529 5525 5521 5518 5514 5512 5509 5507 5505 5504 5504 5504 5505 5504 5504 5504 5505 5506 5507 5509
5593 5589 5586 5583 5579 5576 5573 5569 5566 5563 5560 5557 5553 5550 5547 5544 5540 5537 5534 5530 5526 5522 5519 5515 5512 5507 5503 5499 5496 5494 5492 5491 5490 5488 5487 5488 5488 5488 5488 5488 5488 5489 5491
5580 5577 5574 5570 5567 5564 5561 5557 5554 5551 5548 5545 5541 5538 5535 5532 5528 5525 5522 5518 5514 5510 5506 5502 5498 5494 5490 5486 5483 5481 5478 5477 5476 5474 5472 5471 5471 5472 5472 5472 5471 5471 5473
5568 5565 5561 5558 5555 5552 5548 5545 5542 5539 5536 5533 5530 5526 5523 5520 5516 5513 5509 5506 5502 5498 5494 5489 5485 5481 5477 5473 5470 5467 5465 5463 5461 5460 5457 5456 5455 5454 5457 5457 5456 5455 5456